Погода в Тулюшке

Россия / Иркутская область     54°27′06″N   101°11′00″E
темп.,
°C
ветер,
м/с
пор.,
м/с
влажн.,
%
обл.,
%
осадки,
мм/ч
давл.,
гПа
погр.,
м
4 марта, чт
чт423:00−25ссв229288 0.0 102920
02:00−28ссв119159 0.0 103119
05:00−30всв11950 0.0 103319
08:00−30вюв11960 0.0 103619
11:00−24юв239367 0.0 1035184
14:00−19юв249171 0.0 1034303
17:00−17вюв359375 0.0 1033241
20:00−20юв389960 0.0 1035155
5 марта, пт
пт523:00−21юв399972 0.0 1034184
02:00−22юв399885 0.0 1033202
05:00−21юв399896 0.0 1031216
08:00−22юв389796 0.0 1030206
11:00−18юв479597 0.0 1028244
14:00−13юв489397 0.0 1024297
17:00−11юв499290 0.0 1021322
20:00−11юв499495 0.0 1022269
6 марта, сб
сб623:00−13ююв3896100 0.0 1022183
02:00−13ююв2297100 0.0 102323
05:00−11ю129199 0.0 102421
08:00−11юз2288100 0.0 102521
11:00−6ю2588100 0.0 1024202
14:00−3ююв2389100 0.0 1022272
17:00−2юв3693100 0.0 1020311
20:00−8вюв229595 0.0 102122
7 марта, вс
вс723:00−8в129599 0.0 102121
02:00−7юв2293100 0.0 102022
05:00−8ююв2392100 0.0 102028
08:00−10ю229198 0.0 102021
11:00−6ю238899 0.0 1018135
14:00−2ю248999 0.0 1017244
17:000ююз1294100 0.0 1016166
20:00−5зсз119181 0.0 101921
8 марта, пн
пн823:00−5юз119197 0.0 102121
02:00−6ю119296 0.0 102221
05:00−8ююв229360 0.0 102121
08:00−7ююв249378 0.0 102197
11:00−4ю3792100 0.0 1019276
14:00−1ююв2494100 0.0 1017196
17:000ююв259385 0.0 1016230
20:00−5ююв239358 0.0 101723